Regional Weather Roundup
Issued by NWS

Home | Current Version | Previous Version | Graphics & Text | Print | Product List | Glossary On
Versions: 1 2 3 4 5 6 7 8 9 10 11 12 13 14 15 16 17 18 19 20 21 22 23 24 25 26 27 28 29 30 31 32 33 34 35 36 37 38 39 40 41 42 43 44 45 46 47
000
ASUS45 KBOI 051410
RWRID

IDAHO REGIONAL WEATHER ROUNDUP
NATIONAL WEATHER SERVICE BOISE ID
800 AM MDT SUN JUL 05 2015

NOTE: "FAIR" INDICATES FEW OR NO CLOUDS BELOW 12000 FEET
WITH NO SIGNIFICANT WEATHER AND/OR OBSTRUCTIONS TO VISIBILITY

IDZ012-014-051500-
SOUTHWEST IDAHO


CITY           SKY/WX    TMP DP  RH WIND       PRES   REMARKS
BOISE          CLOUDY    78  51  38 NE5       29.88R
CALDWELL       CLOUDY    81  52  36 SW9       29.86S
MOUNTAIN HOME  CLOUDY    76  53  44 NE5       29.88R
$$

IDZ016-017-051500-
SOUTHCENTRAL IDAHO


CITY           SKY/WX    TMP DP  RH WIND       PRES   REMARKS
BURLEY         CLOUDY    72  53  51 S20G26    29.97R
JEROME         CLOUDY    72  52  49 S8        29.97R
TWIN FALLS     CLOUDY    74  53  48 S14       29.95R
$$

IDZ019>023-051500-
SOUTHEAST IDAHO


CITY           SKY/WX    TMP DP  RH WIND       PRES   REMARKS
IDAHO FALLS    CLOUDY    70  54  56 SW9       29.98R
POCATELLO      CLOUDY    75  51  43 S10       29.99R
REXBURG        CLOUDY    69  52  54 S9        29.99R
$$

IDZ006-010-011-018-031-032-051500-
CENTRAL IDAHO MOUNTAINS


CITY           SKY/WX    TMP DP  RH WIND       PRES   REMARKS
MCCALL         PTSUNNY   60  46  59 CALM      29.99R
HAILEY         MOSUNNY   61  50  67 NW7       30.04R
STANLEY          N/A     53  39  59 CALM      30.11S
SALMON         MOSUNNY   66  52  59 CALM      29.90S
CHALLIS        MOSUNNY   68  38  33 CALM      29.97R
$$

IDZ002-004-006-007-026-051500-
NORTHERN IDAHO


CITY           SKY/WX    TMP DP  RH WIND       PRES   REMARKS
LEWISTON       MOSUNNY   73  49  42 CALM      29.78R
LOWELL           N/A     63  55  75 CALM      29.84R
COEUR D`ALENE  MOSUNNY   72  45  37 N20       29.87R
MULLAN PASS    MOSUNNY   54  45  71 VRB3      30.06R
$$


USA.gov is the U.S. government's official web portal to all federal, state and local government web resources and services.